Location: Home
(42.5358°N, 72.7383°W)
Time: 01:37:30
(UTC-05:00)

CZ-4 DEB - Visible Passes

Search period start: 30 November 2022 00:00
Search period end: 10 December 2022 00:00
Orbit: 676 x 805 km, 98.7° (Epoch: 29 November)

Date Brightness Start Highest point End Pass type
(mag) Time Alt. Az. Time Alt. Az. Time Alt. Az.
30 Nov ? 06:07:38 10° ENE 06:10:16 14° E 06:12:50 10° ESE visible
30 Nov ? 17:18:26 10° ESE 17:22:35 24° ENE 17:26:45 10° NNE visible
30 Nov ? 18:55:39 10° S 19:00:45 48° W 19:05:51 10° NNW visible
01 Dec ? 18:11:41 10° SSE 18:16:57 70° ENE 18:22:11 10° N visible
01 Dec ? 19:52:49 10° SW 19:55:52 15° W 19:58:55 10° NW visible
02 Dec ? 06:17:58 10° NE 06:21:17 18° E 06:24:32 10° SE visible
02 Dec ? 17:28:56 10° SE 17:33:25 29° ENE 17:37:54 10° N visible
02 Dec ? 19:06:49 10° SSW 19:11:43 38° W 19:16:37 10° NNW visible
03 Dec ? 16:47:55 10° E 16:50:11 13° ENE 16:52:26 10° NNE visible
03 Dec ? 18:22:33 10° SSE 18:27:51 86° ENE 18:33:07 10° NNW visible
03 Dec ? 20:04:57 10° WSW 20:06:55 12° W 20:08:53 10° WNW visible
04 Dec ? 06:28:28 10° NE 06:32:17 23° E 06:35:59 10° SE visible
04 Dec ? 17:39:29 10° SE 17:44:16 36° ENE 17:48:59 10° N visible
04 Dec ? 19:18:04 10° SSW 19:22:42 31° W 19:27:19 10° NW visible
05 Dec ? 16:57:53 10° E 17:00:56 16° ENE 17:03:57 10° NNE visible
05 Dec ? 18:33:29 10° S 18:38:46 77° WSW 18:44:01 10° NNW visible
06 Dec ? 17:50:08 10° SE 17:55:06 44° ENE 18:00:01 10° N visible
06 Dec ? 19:29:26 10° SSW 19:33:42 25° W 19:37:56 10° NW visible
07 Dec ? 05:58:37 10° E 05:58:57 10° E 05:59:18 10° E visible
07 Dec ? 17:08:05 10° ESE 17:11:42 19° ENE 17:15:16 10° NNE visible
07 Dec ? 18:44:28 10° S 18:49:42 61° WSW 18:54:51 10° NNW visible
08 Dec ? 18:00:50 10° SSE 18:05:58 54° ENE 18:11:00 10° N visible
08 Dec ? 19:40:56 10° SW 19:44:42 20° W 19:48:25 10° NW visible
09 Dec ? 06:07:44 10° ENE 06:09:58 13° E 06:12:10 10° ESE visible
09 Dec ? 17:18:26 10° ESE 17:22:28 23° ENE 17:26:28 10° NNE visible
09 Dec ? 18:55:32 10° S 19:00:38 49° W 19:05:38 10° NNW visible
